Time,TemperatureF,DewpointF,PressureIn,WindDirection,WindDirectionDegrees,WindSpeedMPH,WindSpeedGustMPH,Humidity,HourlyPrecipIn,Conditions,Clouds,dailyrainin,SolarRadiationWatts/m^2,SoftwareType,DateUTC
2014-01-30 00:02:00,11.0,-2.0,-100.00,SW,229,3.0,6.0,54,0.00,,,0.02,0.000000,,2014-01-30 05:02:00,
2014-01-30 00:13:00,11.0,-2.0,-100.00,SW,229,3.0,6.0,54,0.00,,,0.02,0.000000,,2014-01-30 05:13:00,
2014-01-30 00:22:00,11.0,-2.0,-100.00,SW,229,3.0,6.0,54,0.00,,,0.02,0.000000,,2014-01-30 05:22:00,
2014-01-30 00:53:00,7.0,-4.0,-100.00,WSW,239,2.0,4.0,61,0.00,,,0.02,0.000000,,2014-01-30 05:53:00,
2014-01-30 01:02:00,7.0,-4.0,-100.00,WSW,239,2.0,4.0,61,0.00,,,0.02,0.000000,,2014-01-30 06:02:00,
2014-01-30 01:12:00,7.0,-4.0,-100.00,WSW,239,2.0,4.0,61,0.00,,,0.02,0.000000,,2014-01-30 06:12:00,
2014-01-30 01:22:00,7.0,-4.0,-100.00,WSW,239,2.0,4.0,61,0.00,,,0.02,0.000000,,2014-01-30 06:22:00,
2014-01-30 01:52:00,7.0,-4.0,-100.00,WSW,252,4.0,5.0,61,0.00,,,0.02,0.000000,,2014-01-30 06:52:00,
2014-01-30 02:02:00,7.0,-4.0,-100.00,WSW,252,4.0,5.0,61,0.00,,,0.02,0.000000,,2014-01-30 07:02:00,
2014-01-30 02:11:00,7.0,-4.0,-100.00,WSW,252,4.0,5.0,61,0.00,,,0.02,0.000000,,2014-01-30 07:11:00,
2014-01-30 02:22:00,7.0,-4.0,-100.00,WSW,252,4.0,5.0,61,0.00,,,0.02,0.000000,,2014-01-30 07:22:00,
2014-01-30 02:52:00,3.0,-5.0,-100.00,West,261,3.0,5.0,70,0.00,,,0.02,0.000000,,2014-01-30 07:52:00,
2014-01-30 03:01:00,3.0,-5.0,-100.00,West,261,3.0,5.0,70,0.00,,,0.02,0.000000,,2014-01-30 08:01:00,
2014-01-30 03:12:00,3.0,-5.0,-100.00,West,261,3.0,5.0,70,0.00,,,0.02,0.000000,,2014-01-30 08:12:00,
2014-01-30 03:22:00,3.0,-5.0,-100.00,West,261,3.0,5.0,70,0.00,,,0.02,0.000000,,2014-01-30 08:22:00,
2014-01-30 03:52:00,2.0,-6.0,-100.00,WSW,241,3.0,5.0,69,0.00,,,0.02,0.000000,,2014-01-30 08:52:00,
2014-01-30 04:02:00,2.0,-6.0,-100.00,WSW,241,3.0,5.0,69,0.00,,,0.02,0.000000,,2014-01-30 09:02:00,
2014-01-30 04:11:00,2.0,-6.0,-100.00,WSW,241,3.0,5.0,69,0.00,,,0.02,0.000000,,2014-01-30 09:11:00,
2014-01-30 04:22:00,2.0,-6.0,-100.00,WSW,241,3.0,5.0,69,0.00,,,0.02,0.000000,,2014-01-30 09:22:00,
2014-01-30 04:53:00,3.0,-5.0,-100.00,West,260,2.0,3.0,67,0.00,,,0.02,0.000000,,2014-01-30 09:53:00,
2014-01-30 05:03:00,3.0,-5.0,-100.00,West,260,2.0,3.0,67,0.00,,,0.02,0.000000,,2014-01-30 10:03:00,
2014-01-30 05:13:00,3.0,-5.0,-100.00,West,260,2.0,3.0,67,0.00,,,0.02,0.000000,,2014-01-30 10:13:00,
2014-01-30 05:24:00,3.0,-5.0,-100.00,West,260,2.0,3.0,67,0.00,,,0.02,0.000000,,2014-01-30 10:24:00,
2014-01-30 05:53:00,-3.0,-9.0,-100.00,NW,315,2.0,3.0,74,0.00,,,0.02,0.000000,,2014-01-30 10:53:00,
2014-01-30 06:03:00,-3.0,-9.0,-100.00,NW,315,2.0,3.0,74,0.00,,,0.02,0.000000,,2014-01-30 11:03:00,
2014-01-30 06:12:00,-3.0,-9.0,-100.00,NW,315,2.0,3.0,74,0.00,,,0.02,0.000000,,2014-01-30 11:12:00,
2014-01-30 06:22:00,-3.0,-9.0,-100.00,NW,315,2.0,3.0,74,0.00,,,0.02,0.000000,,2014-01-30 11:22:00,
2014-01-30 06:52:00,6.0,-5.0,-100.00,WNW,288,3.0,4.0,59,0.00,,,0.02,0.000000,,2014-01-30 11:52:00,
2014-01-30 07:02:00,6.0,-5.0,-100.00,WNW,288,3.0,4.0,59,0.00,,,0.02,0.000000,,2014-01-30 12:02:00,
2014-01-30 07:12:00,6.0,-5.0,-100.00,WNW,288,3.0,4.0,59,0.00,,,0.02,0.000000,,2014-01-30 12:12:00,
2014-01-30 07:22:00,6.0,-5.0,-100.00,WNW,288,3.0,4.0,59,0.00,,,0.02,0.000000,,2014-01-30 12:22:00,
2014-01-30 07:52:00,6.0,-6.0,-100.00,West,264,4.0,5.0,58,0.00,,,0.02,2.000000,,2014-01-30 12:52:00,
2014-01-30 08:01:00,6.0,-6.0,-100.00,West,264,4.0,5.0,58,0.00,,,0.02,2.000000,,2014-01-30 13:01:00,
2014-01-30 08:12:00,6.0,-6.0,-100.00,West,264,4.0,5.0,58,0.00,,,0.02,2.000000,,2014-01-30 13:12:00,
2014-01-30 08:22:00,6.0,-6.0,-100.00,West,264,4.0,5.0,58,0.00,,,0.02,2.000000,,2014-01-30 13:22:00,
2014-01-30 09:22:00,14.0,-2.0,-100.00,West,281,4.0,5.0,48,0.00,,,-99.99,100.000000,,2014-01-30 14:22:00,
2014-01-30 10:53:00,28.0,5.0,-100.00,NNE,12,3.0,7.0,36,0.00,,,0.03,438.000000,,2014-01-30 15:53:00,
2014-01-30 11:03:00,28.0,5.0,-100.00,NNE,12,3.0,7.0,36,0.00,,,0.03,438.000000,,2014-01-30 16:03:00,
2014-01-30 11:13:00,28.0,5.0,-100.00,NNE,12,3.0,7.0,36,0.00,,,0.03,438.000000,,2014-01-30 16:13:00,
2014-01-30 11:23:00,28.0,5.0,-100.00,NNE,12,3.0,7.0,36,0.00,,,0.03,438.000000,,2014-01-30 16:23:00,
2014-01-30 11:53:00,27.0,5.0,-100.00,East,83,6.0,9.0,39,0.00,,,0.03,551.000000,,2014-01-30 16:53:00,
2014-01-30 12:03:00,27.0,5.0,-100.00,East,83,6.0,9.0,39,0.00,,,0.03,551.000000,,2014-01-30 17:03:00,
2014-01-30 12:12:00,27.0,5.0,-100.00,East,83,6.0,9.0,39,0.00,,,0.03,551.000000,,2014-01-30 17:12:00,
2014-01-30 12:22:00,27.0,5.0,-100.00,East,83,6.0,9.0,39,0.00,,,0.03,551.000000,,2014-01-30 17:22:00,
2014-01-30 12:52:00,28.0,7.0,-100.00,East,86,5.0,9.0,41,0.02,,,0.04,609.000000,,2014-01-30 17:52:00,
2014-01-30 13:02:00,28.0,7.0,-100.00,East,86,5.0,9.0,41,0.02,,,0.04,609.000000,,2014-01-30 18:02:00,
2014-01-30 13:12:00,28.0,7.0,-100.00,East,86,5.0,9.0,41,0.02,,,0.04,609.000000,,2014-01-30 18:12:00,
2014-01-30 13:22:00,28.0,7.0,-100.00,East,86,5.0,9.0,41,0.02,,,0.04,609.000000,,2014-01-30 18:22:00,
2014-01-30 13:52:00,28.0,8.0,-100.00,ENE,75,7.0,9.0,43,0.00,,,0.03,605.000000,,2014-01-30 18:52:00,
2014-01-30 14:01:00,28.0,8.0,-100.00,ENE,75,7.0,9.0,43,0.00,,,0.03,605.000000,,2014-01-30 19:01:00,
2014-01-30 14:11:00,28.0,8.0,-100.00,ENE,75,7.0,9.0,43,0.00,,,0.03,605.000000,,2014-01-30 19:11:00,
2014-01-30 14:22:00,28.0,8.0,-100.00,ENE,75,7.0,9.0,43,0.00,,,0.03,605.000000,,2014-01-30 19:22:00,
2014-01-30 14:52:00,28.0,12.0,-100.00,East,83,7.0,9.0,51,0.00,,,0.03,541.000000,,2014-01-30 19:52:00,
2014-01-30 15:01:00,28.0,12.0,-100.00,East,83,7.0,9.0,51,0.00,,,0.03,541.000000,,2014-01-30 20:01:00,
2014-01-30 15:11:00,28.0,12.0,-100.00,East,83,7.0,9.0,51,0.00,,,0.03,541.000000,,2014-01-30 20:11:00,
2014-01-30 15:22:00,28.0,12.0,-100.00,East,83,7.0,9.0,51,0.00,,,0.03,541.000000,,2014-01-30 20:22:00,
2014-01-30 15:52:00,26.0,13.0,-100.00,ENE,77,7.0,8.0,57,0.01,,,0.04,419.000000,,2014-01-30 20:52:00,
2014-01-30 16:02:00,26.0,13.0,-100.00,ENE,77,7.0,8.0,57,0.01,,,0.04,419.000000,,2014-01-30 21:02:00,
2014-01-30 16:11:00,26.0,13.0,-100.00,ENE,77,7.0,8.0,57,0.01,,,0.04,419.000000,,2014-01-30 21:11:00,
2014-01-30 16:22:00,26.0,13.0,-100.00,ENE,77,7.0,8.0,57,0.01,,,0.04,419.000000,,2014-01-30 21:22:00,
2014-01-30 17:13:00,21.0,11.0,-100.00,ENE,78,5.0,8.0,66,0.00,,,0.04,221.000000,,2014-01-30 22:13:00,
2014-01-30 17:23:00,21.0,11.0,-100.00,ENE,78,5.0,8.0,66,0.00,,,0.04,221.000000,,2014-01-30 22:23:00,
2014-01-30 18:53:00,19.0,12.0,-100.00,SSE,148,2.0,9.0,74,-99.99,,,0.04,0.000000,,2014-01-30 23:53:00,
2014-01-30 19:02:00,19.0,12.0,-100.00,SSE,148,2.0,9.0,74,-99.99,,,0.04,0.000000,,2014-01-31 00:02:00,
2014-01-30 19:12:00,19.0,12.0,-100.00,SSE,148,2.0,9.0,74,-99.99,,,0.04,0.000000,,2014-01-31 00:12:00,
2014-01-30 19:22:00,19.0,12.0,-100.00,SSE,148,2.0,9.0,74,-99.99,,,0.04,0.000000,,2014-01-31 00:22:00,
2014-01-30 19:52:00,15.0,11.0,-100.00,North,-999,0.0,4.0,85,0.00,,,0.04,0.000000,,2014-01-31 00:52:00,
2014-01-30 20:02:00,15.0,11.0,-100.00,North,-999,0.0,4.0,85,0.00,,,0.04,0.000000,,2014-01-31 01:02:00,
2014-01-30 20:12:00,15.0,11.0,-100.00,North,-999,0.0,4.0,85,0.00,,,0.04,0.000000,,2014-01-31 01:12:00,
2014-01-30 20:22:00,15.0,11.0,-100.00,North,-999,0.0,4.0,85,0.00,,,0.04,0.000000,,2014-01-31 01:22:00,
2014-01-30 20:52:00,14.0,11.0,-100.00,WSW,255,2.0,4.0,87,0.00,,,0.04,0.000000,,2014-01-31 01:52:00,
2014-01-30 21:02:00,14.0,11.0,-100.00,WSW,255,2.0,4.0,87,0.00,,,0.04,0.000000,,2014-01-31 02:02:00,
2014-01-30 21:11:00,14.0,11.0,-100.00,WSW,255,2.0,4.0,87,0.00,,,0.04,0.000000,,2014-01-31 02:11:00,
2014-01-30 21:22:00,14.0,11.0,-100.00,WSW,255,2.0,4.0,87,0.00,,,0.04,0.000000,,2014-01-31 02:22:00,
2014-01-30 21:52:00,13.0,10.0,-100.00,West,261,2.0,4.0,88,0.00,,,0.04,0.000000,,2014-01-31 02:52:00,
2014-01-30 22:02:00,13.0,10.0,-100.00,West,261,2.0,4.0,88,0.00,,,0.04,0.000000,,2014-01-31 03:02:00,
2014-01-30 22:12:00,13.0,10.0,-100.00,West,261,2.0,4.0,88,0.00,,,0.04,0.000000,,2014-01-31 03:12:00,
2014-01-30 22:22:00,13.0,10.0,-100.00,West,261,2.0,4.0,88,0.00,,,0.04,0.000000,,2014-01-31 03:22:00,
2014-01-30 22:54:00,12.0,9.0,-100.00,West,279,3.0,4.0,88,0.00,,,0.04,0.000000,,2014-01-31 03:54:00,
2014-01-30 23:03:00,12.0,9.0,-100.00,West,279,3.0,4.0,88,0.00,,,0.04,0.000000,,2014-01-31 04:03:00,
2014-01-30 23:13:00,12.0,9.0,-100.00,West,279,3.0,4.0,88,0.00,,,0.04,0.000000,,2014-01-31 04:13:00,
2014-01-30 23:23:00,12.0,9.0,-100.00,West,279,3.0,4.0,88,0.00,,,0.04,0.000000,,2014-01-31 04:23:00,
2014-01-30 23:53:00,12.0,9.0,-100.00,West,264,3.0,4.0,87,0.00,,,0.04,0.000000,,2014-01-31 04:53:00,